Location: Ch�ze
(42.9000°N, 0.0333°W)
Time: 23:20:55
(UTC+00:00)

NOSS 3-1 (A) - Pass Details

Date: 24 January 2021
Orbit: 738 x 1474 km, 63.4° (Epoch: 22 February)

Event Time Altitude Azimuth Distance (km) Brightness Sun altitude
Rises 18:47:19 0° 325° (NW) 3,933 7.0 -19.1°
Reaches altitude 10° 18:49:53 10° 329° (NNW) 3,072 6.4 -19.6°
Maximum altitude 18:57:22 62° 50° (NE) 1,449 4.1 -20.9°
Enters shadow 19:02:52 24° 123° (ESE) 2,548 5.2 -21.9°
